Orbital Elements
Epoch 2023 Feb. 25.0 TT = JDT 2460000.5
T 2021 Nov. 3.14422 TT Rudenko
q 4.9928487 (2000.0) P Q
z -0.0003051 Peri. 180.47443 -0.25302727 -0.30216575
+/-0.0000004 Node 75.49192 -0.88447027 +0.45719603
e 1.0015235 Incl. 108.31687 -0.39203259 -0.83646139
>From 2410 observations 2018 Oct. 27-2023 Feb. 25, mean residual 0".5.
|